Tracking 34085 objects as of 13-May-2026
HD Live streaming from Space Station
objects crossing your sky now

STARLINK-37217

Track STARLINK-37217 now!
10-day predictions
STARLINK-37217 is classified as:


NORAD ID: 68335
Int'l Code: 2026-059Q
Perigee: 423.9 km
Apogee: 427.7 km
Inclination: 53.2 °
Period: 92.9 minutes
Semi major axis: 6796 km
RCS: Unknown
Launch date: March 22, 2026
Source: United States (US)
Launch site: AIR FORCE EASTERN TEST RANGE (AFETR)
Your satellite tracking list
Your tracking list is empty




NASA's NSSDC Master Catalog

Two Line Element Set (TLE):
1 68335U 26059Q   26132.90566742  .00034471  00000-0  62432-3 0  9999
2 68335  53.1580  47.4052 0002783 144.4868 215.6327 15.49343151  8040
Source of the keplerian elements: AFSPC